Regional Weather Roundup
Issued by NWS Huntsville, AL

Home | Current Version | Previous Version | Text Only | Print | Product List | Glossary On
Versions: 1 2 3 4 5 6 7 8 9 10 11 12 13 14 15 16 17 18 19 20 21 22 23 24 25 26 27 28
000
ASUS44 KHUN 171110
RWRHUN

WEATHER ROUNDUP FOR THE TENNESSEE VALLEY
NATIONAL WEATHER SERVICE HUNTSVILLE AL
500 AM CST TUE JAN 17 2017

ALZ001>004-171200-
NORTHWEST ALABAMA

CITY           SKY/WX    TMP DP  RH WIND       PRES   REMARKS
COURTLAND HCN    N/A     64 N/A N/A S13         N/A
RUSSELLVILLE     N/A     64 N/A N/A MISG        N/A
SHOALS AIRPORT PTCLDY    65  59  81 S10       30.07F
SHOALS TVA RES   N/A     66 N/A N/A MISG        N/A
$$

ALZ005>007-016-171200-
NORTH CENTRAL ALABAMA

CITY           SKY/WX    TMP DP  RH WIND       PRES   REMARKS
CULLMAN AG STN   N/A     63 N/A N/A SW9         N/A
DECATUR AP     CLOUDY    64  61  90 S15       30.10S
HUNTSVILLE AP  CLOUDY    66  59  78 S12       30.10S
MERIDIANVILLE  CLOUDY    63  54  72 S14       30.10S
REDSTONE ARSN  CLOUDY    64  58  80 SW15      30.10R
$$

ALZ008>010-171200-
NORTHEAST ALABAMA

CITY           SKY/WX    TMP DP  RH WIND       PRES   REMARKS
ALBERTVILLE    CLOUDY    61  61 100 S10G16    30.14S
FORT PAYNE     CLOUDY    61  50  67 MISG      30.15R
SCOTTSBORO AP  CLOUDY    63  55  77 S10       30.13S
SCOTTSBORO HCN   N/A     63 N/A N/A MISG        N/A
VALLEY HEAD      N/A     61 N/A N/A MISG        N/A
$$

TNZ076-096-097-171200-
SOUTHEASTERN MIDDLE TENNESSEE

CITY           SKY/WX    TMP DP  RH WIND       PRES   REMARKS
TULLAHOMA      NOT AVBL
$$

...SURROUNDING SITES...

CITY           SKY/WX    TMP DP  RH WIND       PRES   REMARKS
ATLANTA        PTCLDY    55  54  96 SE3       30.20S
ANNISTON       PTCLDY    59  52  77 W5        30.18R
BIRMINGHAM     CLOUDY    63  59  87 S14       30.17S
CHATTANOOGA    MOCLDY    57  53  86 S6        30.15S
DALTON         CLOUDY    55  55 100 S6        30.17F
GADSDEN        CLOUDY    61  55  81 S5        30.15F
GOLDEN TRNGL   CLOUDY    63  57  82 S8        30.05F
HALEYVILLE     CLOUDY    63  61  93 S13       30.12S
JACKSON TN     LGT RAIN  62  32  32 W14       30.00R
MEMPHIS        LGT RAIN  56  56 100 W8        30.04R FOG
NASHVILLE      CLOUDY    65  59  81 S21       30.01F
OXFORD MS      CLOUDY    57  55  94 W10       30.07R
ROME           CLOUDY    56  53  90 CALM      30.17F
TUPELO         MOCLDY    64  60  87 SE14      30.04F
TUSCALOOSA     CLOUDY    65  62  90 S7        30.13S
$$

...GULF COAST WEATHER...

CITY           SKY/WX    TMP DP  RH WIND       PRES   REMARKS
GULFPORT       CLOUDY    67  67 100 SE8       30.11F FOG
PASCAGOULA     CLOUDY    66  64  93 SE5       30.13F FOG
MOBILE         FOG       66  65  96 S8        30.15F VSB 1
GULF SHORES    PTSUNNY   67  67 100 SE5       30.15S
PENSACOLA      PTCLDY    65  64  97 S5        30.15R
DESTIN         CLEAR     64  62  93 CALM      30.17S
PANAMA CITY    CLEAR     56  55  97 CALM      30.19S
APPALACHICOLA  PTCLDY    63  61  93 E6        30.19R
$$





USA.gov is the U.S. government's official web portal to all federal, state and local government web resources and services.